1508875200.5,8987,10.25,73982.0,-5.09,-37.57,-38.11,0,*6F
1508875201.78,8988,10.25,73980.5,-5.11,-37.39,-37.93,0,*64
1508875202.98,8989,10.25,73980.3,-5.09,-37.15,-37.57,0,*6A
1508875204.24,8990,10.25,73980.8,-5.11,-36.85,-37.39,0,*6B
1508875205.46,8991,10.25,73982.5,-5.09,-36.91,-37.33,0,*6C
1508875206.72,8992,10.25,73980.0,-5.09,-36.91,-37.39,0,*65
1508875208.0,8993,10.25,73982.8,-5.11,-37.09,-37.63,0,*62
1508875209.28,8994,10.25,73980.0,-5.11,-37.39,-37.81,0,*6A
1508875210.53,8995,10.25,73978.8,-5.11,-36.97,-37.39,0,*6D
1508875211.76,8996,10.25,73976.5,-5.11,-36.85,-37.27,0,*62
1508875213.01,8997,10.25,73982.0,-5.11,-37.09,-37.57,0,*61
1508875214.29,8998,10.25,73976.5,-5.11,-37.39,-37.81,0,*66
1508875215.51,8999,10.25,73982.5,-5.11,-37.03,-37.45,0,*66
1508875216.76,9000,10.25,73976.3,-5.11,-36.97,-37.39,0,*69
1508875218.02,9001,10.25,73980.0,-5.11,-37.21,-37.75,0,*6C
1508875219.27,9002,10.25,73978.5,-5.11,-37.45,-37.93,0,*65
1508875220.52,9003,10.25,73980.0,-5.11,-37.09,-37.57,0,*64
1508875221.77,9004,10.25,73982.0,-5.11,-37.09,-37.57,0,*63
1508875223.02,9005,10.25,73980.3,-5.11,-37.09,-37.45,0,*61
1508875224.24,9006,10.25,73980.5,-5.11,-36.97,-37.45,0,*64
1508875225.51,9007,10.25,73978.0,-5.11,-37.39,-37.93,0,*6B
1508875226.74,9008,10.25,73980.3,-5.11,-37.03,-37.57,0,*65
1508875227.97,9009,10.25,73982.0,-5.13,-37.27,-37.81,0,*6B
1508875229.22,9010,10.25,73980.5,-5.11,-37.09,-37.45,0,*65
1508875230.45,9011,10.25,73978.8,-5.13,-36.97,-37.39,0,*6B
1508875231.65,9012,10.25,73980.8,-5.13,-36.85,-37.27,0,*64
1508875232.88,9013,10.25,73980.0,-5.13,-36.85,-37.39,0,*6A
1508875234.14,9014,10.25,73982.8,-5.13,-37.39,-37.81,0,*68
1508875235.36,9015,10.25,73980.5,-5.17,-37.63,-38.05,0,*61
1508875236.64,9016,10.25,73982.0,-5.11,-37.39,-37.93,0,*6B
1508875237.87,9017,10.25,73982.3,-5.13,-37.27,-37.81,0,*64
1508875239.12,9018,10.25,73982.5,-5.17,-37.09,-37.51,0,*6E
1508875240.35,9019,10.25,73980.0,-5.13,-37.09,-37.57,0,*6D
1508875241.61,9020,10.25,73980.5,-5.17,-37.09,-37.51,0,*65
1508875242.87,9021,10.25,73982.3,-5.17,-37.09,-37.51,0,*64
1508875244.12,9022,10.25,73984.8,-5.17,-37.09,-37.51,0,*67
1508875245.35,9023,10.25,73980.3,-5.17,-37.09,-37.45,0,*63
1508875246.54,9024,10.25,73980.5,-5.13,-37.03,-37.45,0,*6A
1508875247.78,9025,10.25,73980.0,-5.13,-36.97,-37.39,0,*6C
1508875249.01,9026,10.25,73978.5,-5.17,-37.27,-37.81,0,*62
1508875250.23,9027,10.25,73980.8,-5.17,-37.45,-37.81,0,*67
1508875251.47,9028,10.25,73980.3,-5.17,-36.85,-37.39,0,*66
1508875252.69,9029,10.25,73982.3,-5.17,-37.45,-37.81,0,*69
1508875253.96,9030,10.25,73982.0,-5.13,-37.21,-37.63,0,*6B
1508875255.22,9031,10.25,73976.3,-5.19,-37.15,-37.63,0,*67
1508875256.47,9032,10.25,73982.8,-5.19,-37.15,-37.69,0,*6E
1508875257.71,9033,10.25,73982.0,-5.19,-37.33,-37.69,0,*6B
1508875258.94,9034,10.25,73982.3,-5.17,-37.33,-37.81,0,*64
1508875260.17,9035,10.25,73980.3,-5.17,-37.15,-37.81,0,*61
1508875261.38,9036,10.25,73982.3,-5.17,-37.33,-37.87,0,*60
1508875262.6,9037,10.25,73982.5,-5.17,-36.91,-37.45,0,*66
1508875263.8,9038,10.25,73978.0,-5.17,-36.85,-37.27,0,*68
1508875265.02,9039,10.25,73982.8,-5.17,-37.27,-37.69,0,*6A
1508875266.26,9040,10.25,73982.3,-5.17,-37.15,-37.51,0,*6E
1508875267.51,9041,10.25,73982.5,-5.19,-37.09,-37.57,0,*6A
1508875268.76,9042,10.25,73982.5,-5.19,-37.33,-37.69,0,*6D
1508875270.04,9043,10.25,73982.3,-5.19,-37.21,-37.69,0,*6F
1508875271.29,9044,10.25,73980.0,-5.19,-37.15,-37.69,0,*6F
1508875272.57,9045,10.25,73980.0,-5.19,-37.09,-37.51,0,*68
1508875273.8,9046,10.25,73980.0,-5.17,-36.91,-37.33,0,*61
1508875275.0,9047,10.25,73982.0,-5.17,-37.33,-37.87,0,*66
1508875276.22,9048,10.25,73980.3,-5.17,-37.33,-37.69,0,*69
1508875277.45,9049,10.25,73980.3,-5.17,-37.15,-37.63,0,*66
1508875278.69,9050,10.25,73982.5,-5.17,-37.15,-37.63,0,*6E
1508875279.91,9051,10.25,73986.8,-5.17,-37.15,-37.69,0,*65
1508875281.19,9052,10.25,73982.0,-5.19,-37.39,-37.93,0,*63
1508875282.44,9053,10.25,73980.3,-5.19,-37.33,-37.69,0,*6D
1508875283.72,9054,10.25,73980.3,-5.19,-37.09,-37.51,0,*68
1508875284.97,9055,10.19,73978.3,-5.19,-37.15,-37.69,0,*6F
1508875286.18,9056,10.25,73982.3,-5.21,-37.33,-37.87,0,*63
1508875287.43,9057,10.25,73986.0,-5.19,-37.09,-37.57,0,*6D
1508875288.71,9058,10.25,73982.5,-5.19,-37.09,-37.51,0,*64
1508875289.96,9059,10.25,73980.8,-5.19,-37.15,-37.69,0,*63
1508875291.21,9060,10.25,73982.3,-5.19,-37.33,-37.69,0,*6D
1508875292.49,9061,10.25,73984.0,-5.19,-37.09,-37.39,0,*60
1508875293.77,9062,10.25,73980.3,-5.19,-36.91,-37.39,0,*63
1508875295.03,9063,10.25,73986.0,-5.19,-36.91,-37.33,0,*68
1508875296.27,9064,10.25,73982.5,-5.19,-36.79,-37.33,0,*69
1508875297.48,9065,10.25,73982.8,-5.17,-36.73,-37.33,0,*6C
1508875298.68,9066,10.25,73982.8,-5.17,-37.33,-37.87,0,*65
1508875299.94,9067,10.25,73986.8,-5.19,-37.21,-37.75,0,*64
1508875301.17,9068,10.25,73982.8,-5.19,-37.33,-37.75,0,*68
1508875302.42,9069,10.25,73984.8,-5.19,-37.33,-37.69,0,*64
1508875303.64,9070,10.25,73982.5,-5.17,-36.91,-37.45,0,*65
1508875304.87,9071,10.25,73984.3,-5.17,-37.27,-37.63,0,*6C
1508875306.12,9072,10.25,73984.5,-5.19,-37.09,-37.57,0,*6A
1508875307.41,9073,10.25,73982.5,-5.19,-36.91,-37.51,0,*6D
1508875308.61,9074,10.25,73986.0,-5.21,-37.15,-37.57,0,*6A
1508875309.87,9075,10.25,73984.8,-5.21,-37.09,-37.51,0,*60
1508875311.13,9076,10.25,73982.5,-5.19,-37.39,-37.87,0,*60
1508875312.36,9077,10.19,73978.8,-5.17,-37.33,-37.99,0,*6A
1508875313.58,9078,10.25,73980.0,-5.17,-37.09,-37.45,0,*6D
1508875314.81,9079,10.25,73984.3,-5.19,-37.33,-37.87,0,*65
1508875316.07,9080,10.25,73986.8,-5.19,-37.21,-37.75,0,*6D
1508875317.3,9081,10.25,73984.5,-5.19,-37.33,-37.75,0,*6F
1508875318.58,9082,10.25,73986.0,-5.19,-37.21,-37.69,0,*62
1508875319.86,9083,10.25,73984.8,-5.19,-36.91,-37.39,0,*6C
1508875321.09,9084,10.25,73980.0,-5.21,-37.39,-37.75,0,*6B
1508875322.32,9085,10.25,73982.5,-5.21,-37.33,-37.69,0,*6D
1508875323.58,9086,10.25,73982.5,-5.19,-37.21,-37.57,0,*6B
1508875324.83,9087,10.25,73986.8,-5.19,-37.51,-37.87,0,*60
1508875326.07,9088,10.25,73984.0,-5.21,-37.75,-38.29,0,*69
1508875327.32,9089,10.25,73984.0,-5.19,-38.11,-38.55,0,*65
1508875328.56,9090,10.25,73982.5,-5.21,-37.87,-38.29,0,*6D
1508875329.81,9091,10.25,73984.5,-5.21,-38.11,-38.67,0,*66
1508875331.06,9092,10.25,73986.5,-5.21,-37.51,-37.93,0,*6A
1508875332.31,9093,10.25,73986.0,-5.27,-37.45,-37.93,0,*68
1508875333.54,9094,10.25,73984.0,-5.25,-37.45,-38.11,0,*68
1508875334.8,9095,10.25,73986.8,-5.25,-37.39,-37.81,0,*64
1508875336.06,9096,10.25,73980.0,-5.25,-37.63,-38.29,0,*65
1508875337.34,9097,10.25,73986.0,-5.27,-37.63,-37.99,0,*62
1508875338.57,9098,10.25,73982.3,-5.25,-37.21,-37.45,0,*68
1508875339.8,9099,10.25,73984.8,-5.27,-37.27,-37.75,0,*6E
1508875341.03,9100,10.25,73980.5,-5.27,-36.97,-37.45,0,*66
1508875342.24,9101,10.25,73984.8,-5.25,-36.85,-37.15,0,*63
1508875343.44,9102,10.25,73986.0,-5.25,-37.03,-37.57,0,*69
1508875344.67,9103,10.25,73984.3,-5.25,-37.63,-38.17,0,*65
1508875345.91,9104,10.25,73984.3,-5.25,-37.27,-37.81,0,*62
1508875347.17,9105,10.25,73984.5,-5.25,-37.81,-38.29,0,*62
1508875348.43,9106,10.25,73986.8,-5.27,-37.99,-38.35,0,*67
1508875349.69,9107,10.25,73984.0,-5.27,-37.45,-37.81,0,*67
1508875350.94,9108,10.25,73984.8,-5.27,-37.63,-38.17,0,*6C
1508875352.23,9109,10.25,73984.3,-5.27,-37.81,-38.29,0,*6C
1508875353.46,9110,10.25,73982.5,-5.27,-37.15,-37.57,0,*6F
1508875354.69,9111,10.25,73986.0,-5.27,-36.97,-37.57,0,*65
1508875355.92,9112,10.25,73986.8,-5.27,-37.03,-37.57,0,*6A
1508875357.14,9113,10.25,73986.3,-5.25,-36.79,-37.27,0,*62
1508875358.37,9114,10.25,73982.5,-5.27,-37.15,-37.57,0,*6B
1508875359.58,9115,10.25,73986.3,-5.25,-37.27,-37.75,0,*69
1508875360.79,9116,10.25,73986.5,-5.25,-36.97,-37.15,0,*66
1508875362.04,9117,10.25,73986.5,-5.25,-37.63,-38.11,0,*66
1508875363.31,9118,10.19,73982.5,-5.25,-37.21,-37.63,0,*65
1508875364.54,9119,10.19,73980.0,-5.27,-36.85,-37.27,0,*69
1508875365.76,9120,10.25,73982.5,-5.25,-36.79,-37.27,0,*62
1508875366.99,9121,10.25,73982.5,-5.25,-36.61,-36.97,0,*60
1508875368.2,9122,10.25,73984.5,-5.25,-37.03,-37.57,0,*6B
1508875369.43,9123,10.25,73986.3,-5.25,-37.21,-37.57,0,*6A
1508875370.64,9124,10.25,73984.3,-5.25,-37.15,-37.57,0,*6A
1508875371.84,9125,10.25,73984.0,-5.25,-37.03,-37.45,0,*6F
1508875373.05,9126,10.25,73984.5,-5.25,-37.27,-37.75,0,*69
1508875374.27,9127,10.25,73984.5,-5.27,-36.85,-37.27,0,*64
1508875375.51,9128,10.25,73986.8,-5.25,-36.79,-37.15,0,*6B
1508875376.74,9129,10.25,73982.3,-5.25,-36.61,-37.03,0,*64
1508875377.94,9130,10.25,73986.3,-5.25,-37.15,-37.57,0,*6F
1508875379.18,9131,10.25,73984.3,-5.25,-37.03,-37.39,0,*61
1508875380.38,9132,10.25,73988.8,-5.25,-36.85,-37.45,0,*66
1508875381.61,9133,10.25,73984.5,-5.21,-36.55,-36.91,0,*66
1508875382.84,9134,10.25,73984.8,-5.21,-36.97,-37.39,0,*6C
1508875384.1,9135,10.25,73984.8,-5.21,-36.61,-37.09,0,*67
1508875385.33,9136,10.25,73986.0,-5.21,-36.73,-37.09,0,*67
1508875386.59,9137,10.25,73980.8,-5.21,-36.61,-37.09,0,*65
1508875387.84,9138,10.19,73980.5,-5.21,-36.61,-37.09,0,*6A
1508875389.1,9139,10.25,73986.5,-5.19,-36.91,-37.33,0,*66
1508875390.35,9140,10.25,73984.5,-5.19,-37.15,-37.69,0,*6A
1508875391.63,9141,10.25,73986.0,-5.19,-36.61,-37.21,0,*65
1508875392.85,9142,10.25,73984.3,-5.21,-36.79,-37.33,0,*67
1508875394.11,9143,10.25,73984.3,-5.21,-37.09,-37.51,0,*64
1508875395.37,9144,10.25,73984.3,-5.21,-36.91,-37.39,0,*6D
1508875396.63,9145,10.19,73980.0,-5.19,-36.97,-37.51,0,*6F
1508875397.86,9146,10.25,73984.5,-5.21,-36.73,-37.21,0,*6A
1508875399.11,9147,10.25,73986.0,-5.19,-37.33,-37.69,0,*69
1508875400.32,9148,10.25,73986.0,-5.21,-37.15,-37.57,0,*64
1508875401.58,9149,10.25,73990.0,-5.19,-37.21,-37.75,0,*69
1508875402.83,9150,10.25,73986.8,-5.21,-37.93,-38.49,0,*63
1508875404.06,9151,10.25,73986.0,-5.19,-37.57,-37.87,0,*6C
1508875405.3,9152,10.25,73984.0,-5.21,-37.21,-37.75,0,*68
1508875406.54,9153,10.25,73986.0,-5.21,-37.21,-37.57,0,*69
1508875407.8,9154,10.25,73984.5,-5.21,-37.09,-37.51,0,*62
1508875409.0,9155,10.25,73986.5,-5.21,-36.55,-36.97,0,*60
1508875410.26,9156,10.25,73982.5,-5.19,-36.55,-36.91,0,*6E
1508875411.51,9157,10.25,73984.3,-5.21,-36.37,-36.79,0,*66
1508875412.74,9158,10.25,73984.0,-5.21,-36.73,-37.21,0,*65
1508875414.02,9159,10.25,73986.8,-5.19,-36.37,-36.79,0,*63
1508875415.3,9160,10.25,73984.8,-5.19,-36.91,-37.39,0,*60
1508875416.53,9161,10.25,73986.0,-5.19,-36.55,-36.97,0,*6C
1508875417.81,9162,10.25,73984.0,-5.19,-36.61,-37.21,0,*64
1508875419.04,9163,10.25,73988.0,-5.17,-36.49,-36.73,0,*67
1508875420.26,9164,10.25,73986.8,-5.17,-36.55,-36.91,0,*61
1508875421.49,9165,10.25,73986.5,-5.17,-36.67,-36.91,0,*61
1508875422.77,9166,10.25,73986.5,-5.19,-36.91,-37.39,0,*66
1508875424.0,9167,10.25,73984.0,-5.17,-36.91,-37.45,0,*62
1508875425.2,9168,10.25,73984.5,-5.17,-36.67,-37.27,0,*60
1508875426.4,9169,10.25,73984.5,-5.17,-36.67,-37.33,0,*64
1508875427.62,9170,10.25,73984.8,-5.13,-36.49,-36.85,0,*68
1508875428.82,9171,10.25,73984.8,-5.17,-36.73,-37.27,0,*6D
1508875430.02,9172,10.25,73984.5,-5.17,-37.03,-37.45,0,*6C
1508875431.24,9173,10.25,73984.5,-5.13,-36.49,-36.97,0,*68
1508875432.47,9174,10.25,73986.0,-5.13,-36.49,-36.97,0,*6F
1508875433.7,9175,10.25,73986.5,-5.13,-36.61,-36.97,0,*64
1508875434.92,9176,10.25,73986.5,-5.13,-36.79,-37.27,0,*64
1508875436.15,9177,10.25,73984.3,-5.17,-36.55,-36.91,0,*63
1508875437.35,9178,10.25,73986.8,-5.13,-36.85,-37.27,0,*69
1508875438.55,9179,10.25,73986.8,-5.13,-36.85,-37.27,0,*68
1508875439.78,9180,10.25,73986.0,-5.13,-36.67,-37.09,0,*6E
1508875441.01,9181,10.25,73986.0,-5.13,-36.67,-37.21,0,*65
1508875442.24,9182,10.25,73990.0,-5.13,-37.09,-37.57,0,*6E
1508875443.46,9183,10.25,73988.8,-5.17,-36.91,-37.45,0,*68
1508875444.66,9184,10.25,73984.3,-5.17,-36.73,-37.33,0,*62
1508875445.89,9185,10.19,73982.8,-5.13,-36.61,-36.97,0,*6B
1508875447.11,9186,10.25,73984.8,-5.11,-36.67,-37.27,0,*66
1508875448.37,9187,10.25,73988.0,-5.13,-36.61,-37.09,0,*6F
1508875449.62,9188,10.19,73984.0,-5.13,-36.61,-37.09,0,*60
1508875450.82,9189,10.25,73984.0,-5.13,-36.85,-37.33,0,*62
1508875452.07,9190,10.25,73986.5,-5.13,-36.61,-37.09,0,*69
1508875453.28,9191,10.25,73984.3,-5.13,-36.97,-37.57,0,*6A
1508875454.5,9192,10.25,73990.3,-5.13,-37.09,-37.45,0,*6C
1508875455.72,9193,10.25,73986.0,-5.13,-36.79,-37.27,0,*6F
1508875456.95,9194,10.19,73986.0,-5.13,-36.79,-37.27,0,*68
1508875458.15,9195,10.25,73986.8,-5.13,-37.03,-37.27,0,*65
1508875459.37,9196,10.25,73986.8,-5.13,-36.79,-37.27,0,*6A
1508875460.57,9197,10.25,73990.5,-5.13,-36.67,-37.27,0,*64
1508875461.8,9198,10.25,73986.8,-5.13,-36.67,-37.21,0,*6D
1508875463.05,9199,10.25,73988.0,-5.13,-36.25,-36.79,0,*66
1508875464.27,9200,10.19,73982.0,-5.13,-36.43,-36.79,0,*65
1508875465.52,9201,10.25,73988.8,-5.11,-36.61,-37.27,0,*6C
1508875466.8,9202,10.25,73986.8,-5.11,-36.61,-37.09,0,*63
1508875468.03,9203,10.25,73984.8,-5.09,-36.73,-37.21,0,*62
1508875469.3,9204,10.25,73988.0,-5.11,-36.61,-37.09,0,*65
1508875470.56,9205,10.25,73984.0,-5.09,-36.61,-37.21,0,*67
1508875471.81,9206,10.19,73984.8,-5.11,-36.61,-36.97,0,*61
1508875473.06,9207,10.25,73984.0,-5.11,-36.97,-37.39,0,*6C
1508875474.29,9208,10.25,73986.8,-5.09,-37.15,-37.51,0,*6F
1508875475.55,9209,10.25,73986.8,-5.11,-36.67,-37.09,0,*6E
1508875476.79,9210,10.25,73984.3,-5.11,-36.61,-36.85,0,*65
1508875478.0,9211,10.25,73988.3,-5.09,-36.55,-37.15,0,*62
1508875479.23,9212,10.25,73988.5,-5.09,-36.37,-36.73,0,*64
1508875480.5,9213,10.25,73986.8,-5.11,-36.61,-37.21,0,*69
1508875481.75,9214,10.25,73988.5,-5.09,-36.37,-36.79,0,*68
1508875483.0,9215,10.25,73986.0,-5.09,-36.37,-36.79,0,*69
1508875484.23,9216,10.25,73986.3,-5.09,-36.61,-37.03,0,*65
1508875485.48,9217,10.25,73986.8,-5.09,-36.91,-37.21,0,*6B
1508875486.76,9218,10.25,73986.0,-5.11,-36.61,-37.09,0,*68
1508875488.01,9219,10.25,73988.8,-5.07,-36.67,-37.09,0,*68
1508875489.24,9220,10.25,73984.8,-5.09,-36.37,-36.73,0,*65
1508875490.47,9221,10.25,73984.3,-5.09,-36.37,-36.73,0,*64
1508875491.69,9222,10.25,73990.5,-5.09,-36.55,-36.91,0,*6F
1508875492.92,9223,10.25,73986.3,-5.09,-36.43,-36.91,0,*69
1508875494.13,9224,10.25,73984.5,-5.05,-36.31,-36.67,0,*6E
1508875495.38,9225,10.25,73986.0,-5.07,-36.49,-36.97,0,*6D
1508875496.61,9226,10.25,73988.5,-5.07,-36.67,-37.15,0,*69
1508875497.84,9227,10.19,73984.3,-5.07,-36.73,-37.15,0,*6D
1508875499.06,9228,10.25,73986.8,-5.09,-36.79,-37.33,0,*62
1508875500.28,9229,10.25,73984.5,-5.07,-36.73,-37.33,0,*67
1508875501.53,9230,10.25,73984.3,-5.07,-36.49,-36.97,0,*69
1508875502.79,9231,10.19,73984.0,-5.07,-36.55,-37.09,0,*63
1508875504.01,9232,10.19,73984.8,-5.07,-36.31,-36.73,0,*6E
1508875505.24,9233,10.25,73986.8,-5.07,-36.67,-37.15,0,*6D
1508875506.5,9234,10.25,73984.3,-5.07,-36.55,-37.09,0,*66
1508875507.7,9235,10.25,73988.5,-5.05,-36.85,-37.27,0,*64
1508875508.95,9236,10.25,73984.8,-5.07,-36.91,-37.33,0,*65
1508875510.17,9237,10.25,73986.8,-5.07,-36.85,-37.33,0,*61
1508875511.4,9238,10.25,73984.8,-5.07,-36.85,-37.27,0,*6B
1508875512.63,9239,10.25,73986.3,-5.07,-36.73,-37.15,0,*62
1508875513.88,9240,10.25,73988.5,-5.07,-36.55,-37.09,0,*65
1508875515.09,9241,10.25,73988.0,-5.05,-36.67,-37.15,0,*6A
1508875516.29,9242,10.25,73986.8,-5.05,-36.85,-37.45,0,*60
1508875517.5,9243,10.25,73984.8,-5.05,-36.97,-37.33,0,*63
1508875518.71,9244,10.25,73988.8,-5.05,-36.85,-37.15,0,*63
1508875519.94,9245,10.25,73984.8,-5.05,-36.67,-37.09,0,*63
1508875521.14,9246,10.25,73986.8,-5.05,-36.73,-37.27,0,*69
1508875522.4,9247,10.25,73986.5,-5.05,-37.09,-37.51,0,*65
1508875523.65,9248,10.25,73988.0,-5.07,-37.51,-38.05,0,*6B
1508875524.93,9249,10.25,73984.0,-5.07,-36.91,-37.51,0,*69
1508875526.18,9250,10.25,73988.5,-5.07,-36.91,-37.33,0,*65
1508875527.4,9251,10.25,73986.5,-5.07,-36.67,-37.15,0,*69
1508875528.66,9252,10.25,73986.0,-5.07,-36.55,-37.09,0,*66
1508875529.88,9253,10.25,73984.8,-5.07,-36.85,-37.27,0,*66
1508875531.13,9254,10.25,73984.8,-5.07,-37.27,-37.81,0,*64
1508875532.38,9255,10.25,73986.5,-5.07,-36.49,-36.97,0,*6A
1508875533.61,9256,10.25,73986.5,-5.07,-36.85,-37.33,0,*66
1508875534.81,9257,10.19,73982.0,-5.05,-36.85,-37.27,0,*60
1508875536.04,9258,10.19,73982.3,-5.07,-36.85,-37.33,0,*68
1508875537.29,9259,10.25,73984.5,-5.07,-36.67,-37.09,0,*6C
1508875538.54,9260,10.25,73986.5,-5.07,-36.73,-37.09,0,*63
1508875539.8,9261,10.25,73984.8,-5.07,-36.55,-37.09,0,*66
1508875541.02,9262,10.25,73984.5,-5.07,-36.85,-37.27,0,*64
1508875542.24,9263,10.25,73984.8,-5.07,-36.73,-37.27,0,*6C
1508875543.47,9264,10.25,73984.8,-5.07,-36.97,-37.45,0,*65
1508875544.69,9265,10.25,73986.0,-5.07,-36.97,-37.33,0,*65
1508875545.92,9266,10.19,73980.8,-5.07,-36.97,-37.33,0,*66
1508875547.17,9267,10.25,73984.0,-5.09,-36.79,-37.51,0,*6D
1508875548.4,9268,10.25,73986.5,-5.09,-36.97,-37.51,0,*62
1508875549.61,9269,10.25,73984.3,-5.09,-37.15,-37.57,0,*6E
1508875550.84,9270,10.25,73984.0,-5.09,-36.97,-37.51,0,*6B
1508875552.06,9271,10.25,73986.0,-5.09,-36.91,-37.33,0,*68
1508875553.26,9272,10.25,73986.3,-5.09,-37.03,-37.33,0,*61
1508875554.49,9273,10.25,73986.3,-5.09,-37.03,-37.51,0,*64
1508875555.74,9274,10.25,73986.0,-5.09,-36.79,-37.21,0,*68
1508875556.99,9275,10.19,73982.3,-5.07,-36.91,-37.33,0,*62
1508875558.28,9276,10.25,73984.3,-5.07,-37.09,-37.63,0,*64
1508875559.48,9277,10.25,73984.3,-5.09,-37.15,-37.75,0,*61
1508875560.68,9278,10.25,73986.0,-5.09,-37.15,-37.75,0,*6E
1508875561.91,9279,10.25,73986.0,-5.09,-37.03,-37.39,0,*60
1508875563.11,9280,10.25,73986.3,-5.09,-37.15,-37.57,0,*69
1508875564.35,9281,10.25,73986.0,-5.09,-37.21,-37.75,0,*6F
1508875565.58,9282,10.25,73982.8,-5.09,-37.51,-37.87,0,*66
1508875566.8,9283,10.25,73984.3,-5.09,-36.91,-37.33,0,*65
1508875568.02,9284,10.25,73984.0,-5.09,-37.33,-37.69,0,*64
1508875569.28,9285,10.25,73984.0,-5.11,-37.09,-37.57,0,*68
1508875570.5,9286,10.25,73982.5,-5.11,-36.97,-37.45,0,*6E
1508875571.75,9287,10.25,73982.5,-5.11,-37.27,-37.51,0,*60
1508875572.98,9288,10.25,73984.5,-5.13,-37.57,-37.81,0,*67
1508875574.24,9289,10.25,73986.3,-5.11,-37.21,-37.57,0,*6E
1508875575.49,9290,10.25,73982.8,-5.11,-37.09,-37.57,0,*6C
1508875576.74,9291,10.25,73984.5,-5.11,-36.97,-37.39,0,*63
1508875578.02,9292,10.25,73986.5,-5.11,-37.09,-37.69,0,*63
1508875579.26,9293,10.25,73984.8,-5.11,-37.09,-37.45,0,*6C
1508875580.52,9294,10.25,73986.5,-5.11,-36.85,-37.39,0,*65
1508875581.77,9295,10.25,73986.0,-5.11,-37.27,-37.93,0,*6D
1508875583.0,9296,10.25,73986.0,-5.09,-37.15,-37.51,0,*68
1508875584.22,9297,10.25,73990.3,-5.09,-36.79,-37.33,0,*66
1508875585.51,9298,10.25,73986.0,-5.11,-37.21,-37.63,0,*69
1508875586.78,9299,10.25,73986.3,-5.11,-37.39,-37.81,0,*6D
1508875588.01,9300,10.25,73986.3,-5.13,-37.09,-37.45,0,*65
1508875589.21,9301,10.25,73984.3,-5.13,-37.03,-37.57,0,*6D
1508875590.47,9302,10.25,73986.5,-5.11,-37.27,-37.63,0,*6D
1508875591.74,9303,10.25,73984.3,-5.11,-37.39,-37.81,0,*6F
1508875593.0,9304,10.25,73984.5,-5.13,-37.09,-37.63,0,*65
1508875594.24,9305,10.25,73984.5,-5.13,-37.21,-37.75,0,*69
1508875595.46,9306,10.25,73984.5,-5.13,-37.09,-37.57,0,*60
1508875596.69,9307,10.25,73984.3,-5.17,-37.09,-37.45,0,*66
1508875597.92,9308,10.25,73984.3,-5.13,-37.21,-37.57,0,*64
1508875599.15,9309,10.25,73986.5,-5.13,-37.03,-37.39,0,*6D
1508875600.41,9310,10.25,73986.0,-5.17,-37.09,-37.63,0,*64
1508875601.61,9311,10.25,73986.5,-5.13,-36.97,-37.45,0,*63
1508875602.84,9312,10.19,73982.8,-5.13,-37.09,-37.57,0,*65
1508875604.07,9313,10.25,73986.5,-5.13,-37.03,-37.39,0,*66
1508875605.32,9314,10.25,73988.0,-5.13,-36.79,-37.21,0,*64
1508875606.55,9315,10.25,73984.0,-5.13,-36.67,-37.09,0,*60
1508875607.78,9316,10.25,73990.8,-5.13,-37.09,-37.57,0,*61
1508875608.98,9317,10.25,73984.0,-5.13,-36.85,-37.45,0,*66
1508875610.18,9318,10.25,73986.0,-5.13,-37.27,-37.75,0,*63
1508875611.42,9319,10.25,73984.0,-5.13,-37.27,-37.63,0,*65
1508875612.67,9320,10.25,73986.3,-5.17,-37.09,-37.63,0,*67
1508875613.91,9321,10.25,73988.0,-5.13,-36.85,-37.39,0,*68
1508875615.14,9322,10.25,73984.0,-5.17,-37.27,-37.81,0,*65
1508875616.37,9323,10.25,73986.8,-5.17,-37.03,-37.63,0,*6E
1508875617.6,9324,10.25,73990.3,-5.13,-36.67,-37.21,0,*68
1508875618.8,9325,10.25,73982.8,-5.13,-36.85,-37.45,0,*67
1508875620.06,9326,10.25,73984.8,-5.13,-37.21,-37.63,0,*6F
1508875621.29,9327,10.25,73984.8,-5.13,-37.15,-37.81,0,*65
1508875622.52,9328,10.25,73984.8,-5.17,-37.15,-37.69,0,*68
1508875623.75,9329,10.25,73986.3,-5.13,-37.21,-37.75,0,*67
1508875624.98,9330,10.25,73986.3,-5.17,-37.15,-37.81,0,*67
1508875626.18,9331,10.25,73986.5,-5.17,-37.03,-37.57,0,*6A
1508875627.39,9332,10.19,73984.0,-5.17,-36.85,-37.27,0,*61
1508875628.62,9333,10.25,73986.3,-5.17,-37.03,-37.51,0,*6E
1508875629.85,9334,10.25,73984.0,-5.13,-37.27,-37.63,0,*6A
1508875631.07,9335,10.25,73988.0,-5.13,-36.79,-37.27,0,*61
1508875632.3,9336,10.25,73986.8,-5.13,-37.21,-37.75,0,*69
1508875633.51,9337,10.25,73984.5,-5.17,-36.67,-37.15,0,*69
1508875634.74,9338,10.25,73988.8,-5.17,-36.91,-37.33,0,*6B
1508875635.96,9339,10.25,73984.5,-5.17,-36.91,-37.33,0,*6A
1508875637.22,9340,10.25,73984.8,-5.17,-37.09,-37.51,0,*60
1508875638.42,9341,10.25,73984.3,-5.17,-36.85,-37.33,0,*60
1508875639.65,9342,10.25,73988.0,-5.17,-37.27,-37.81,0,*63
1508875640.88,9343,10.25,73986.3,-5.17,-37.27,-37.63,0,*6E
1508875642.11,9344,10.19,73982.8,-5.17,-37.03,-37.51,0,*6E
1508875643.31,9345,10.25,73990.0,-5.13,-36.85,-37.45,0,*61
1508875644.54,9346,10.25,73986.3,-5.13,-37.27,-37.81,0,*63
1508875645.78,9347,10.25,73988.5,-5.17,-37.15,-37.63,0,*6B
1508875647.03,9348,10.25,73984.3,-5.17,-37.69,-38.23,0,*64
1508875648.29,9349,10.25,73988.0,-5.17,-37.81,-38.23,0,*63
1508875649.5,9350,10.25,73990.0,-5.17,-37.45,-37.87,0,*62
1508875650.75,9351,10.25,73984.8,-5.19,-37.69,-38.05,0,*66
1508875652.0,9352,10.25,73984.5,-5.19,-37.75,-38.23,0,*6C
1508875653.28,9353,10.25,73986.3,-5.19,-37.69,-38.11,0,*61
1508875654.5,9354,10.25,73990.3,-5.21,-37.39,-38.05,0,*6D
1508875655.76,9355,10.25,73988.8,-5.21,-37.39,-37.93,0,*6C
1508875657.01,9356,10.25,73990.0,-5.19,-37.51,-38.05,0,*6A
1508875658.26,9357,10.25,73984.8,-5.21,-37.69,-38.11,0,*6E
1508875659.5,9358,10.25,73986.0,-5.21,-37.87,-38.29,0,*6A
1508875660.73,9359,10.19,73982.0,-5.21,-38.05,-38.67,0,*64
1508875661.95,9360,10.25,73986.0,-5.25,-38.35,-38.79,0,*66
1508875663.19,9361,10.25,73986.5,-5.25,-37.99,-38.61,0,*67
1508875664.44,9362,10.25,73980.0,-5.27,-38.11,-38.61,0,*69
1508875665.67,9363,10.25,73982.8,-5.25,-37.75,-38.29,0,*6B
1508875666.92,9364,10.25,73980.5,-5.27,-37.63,-38.17,0,*64
1508875668.18,9365,10.25,73984.5,-5.27,-37.03,-37.63,0,*6F
1508875669.42,9366,10.25,73984.8,-5.25,-37.15,-37.63,0,*69
1508875670.65,9367,10.19,73980.5,-5.25,-37.45,-37.93,0,*62
1508875671.9,9368,10.25,73986.3,-5.27,-37.45,-37.93,0,*6F
1508875673.18,9369,10.25,73986.0,-5.27,-37.81,-38.11,0,*63
1508875674.44,9370,10.25,73984.0,-5.27,-37.57,-37.99,0,*6F
1508875675.71,9371,10.25,73982.8,-5.27,-37.39,-37.93,0,*6C
1508875676.96,9372,10.19,73986.5,-5.27,-37.63,-38.17,0,*63
1508875678.21,9373,10.25,73990.0,-5.27,-37.57,-38.11,0,*63
1508875679.44,9374,10.25,73986.3,-5.27,-37.75,-38.35,0,*62
1508875680.65,9375,10.25,73984.0,-5.29,-38.05,-38.61,0,*64
1508875681.89,9376,10.25,73984.0,-5.29,-37.87,-38.49,0,*68
1508875683.13,9377,10.25,73982.8,-5.29,-38.43,-38.79,0,*6D
1508875684.37,9378,10.25,73986.5,-5.29,-38.49,-38.85,0,*6B
1508875685.65,9379,10.25,73982.5,-5.31,-38.23,-38.49,0,*6F
1508875686.91,9380,10.19,73982.8,-5.31,-37.81,-38.17,0,*65
1508875688.16,9381,10.25,73982.3,-5.33,-37.51,-37.87,0,*6D
1508875689.36,9382,10.25,73980.5,-5.35,-37.57,-38.05,0,*6B
1508875690.61,9383,10.25,73984.0,-5.33,-37.93,-38.55,0,*61
1508875691.86,9384,10.25,73986.3,-5.33,-38.29,-38.73,0,*6C
1508875693.1,9385,10.25,73982.8,-5.33,-38.23,-38.73,0,*67
1508875694.34,9386,10.25,73984.5,-5.35,-38.23,-38.67,0,*67
1508875695.55,9387,10.25,73984.5,-5.35,-38.05,-38.55,0,*63
1508875696.8,9388,10.19,73984.0,-5.35,-37.93,-38.49,0,*61
1508875698.04,9389,10.19,73980.8,-5.35,-38.11,-38.67,0,*69
1508875699.25,9390,10.19,73984.0,-5.35,-38.05,-38.55,0,*65
1508875700.5,9391,10.19,73984.8,-5.39,-37.63,-37.99,0,*68
1508875701.7,9392,10.25,73984.3,-5.39,-37.33,-37.75,0,*6C
1508875702.95,9393,10.25,73988.8,-5.39,-37.39,-37.81,0,*6C